RADUGA 3 [-]

Last updated on Sept. 26, 2020, 5:40 a.m. UTC

1 10159U 77071A   20269.63222397  .00000039  00000-0  00000+0 0  9992
2 10159   9.3073 301.3196 0007939 223.8105 126.3868  1.00195997156098
UTC
Height (km)
Latitude
Longitude
Inclination
Orbital Period
UTC large
Height (km)
Speed (km/s)
/
Latitude / Longitude
Inclination (degrees)
Orbital Period (minutes)
Azimuth
Elevation
Range (km)
Doppler Factor
iOS Compass Heading
iOS Angle

Next 30 passes for location: Hong Kong

Rise time Rise Azimuth (degrees) Set time Set Azimuth (degrees) Duration Max altitude (degrees)

No matching passes for this satellites